Location: College Park
(38.9810°N, 76.9370°W)
Time: 23:44:11
(UTC-05:00)

N. Korean satellite - Pass Details

Date: 10 January 2018
Orbit: 459 x 515 km, 97.2° (Epoch: 19 January)

Event Time Altitude Azimuth Distance (km) Brightness Sun altitude
Rises 18:11:20 0° 172° (S) 2,601 10.4 -12.8°
Reaches altitude 10° 18:13:26 10° 174° (S) 1,714 9.5 -13.2°
Maximum altitude 18:17:07 71° 258° (WSW) 535 6.9 -13.8°
Drops below altitude 10° 18:20:46 10° 344° (NNW) 1,699 9.3 -14.5°
Sets 18:22:51 0° 346° (NNW) 2,576 10.2 -14.9°
